Regional Weather Roundup
Issued by NWS Glasgow, MT

Home | Current Version | Previous Version | Text Only | Print | Product List | Glossary On
Versions: 1 2 3 4 5 6 7 8 9 10 11 12 13 14 15 16 17 18 19 20 21 22 23 24 25 26 27 28 29 30 31 32 33 34 35 36 37 38 39 40 41 42 43 44 45 46 47 48 49 50
000
ASUS45 KGGW 061715
RWRGGW
HOURLY REGIONAL WEATHER ROUNDUP FOR NORTHEAST MONTANA
NATIONAL WEATHER SERVICE GLASGOW MONTANA
1100 AM MDT MON JUL 06 2015

NOTE: "FAIR" INDICATES FEW OR NO CLOUDS BELOW 12,000 FEET WITH NO
SIGNIFICANT WEATHER AND/OR OBSTRUCTIONS TO VISISBILITY.

NORTHEAST MONTANA


CITY           SKY/WX    TMP DP  RH WIND       PRES   REMARKS
GLASGOW        MOSUNNY   66  47  50 CALM      30.21F
PLENTYWOOD       N/A     64  50  60 NW6G15      N/A
WOLF POINT     MOSUNNY   69  49  48 NW8       30.21F HAZE
JORDAN           N/A     68  48  48 VRB5      30.23S
WINNETT          N/A     61  46  57 W5          N/A
SIDNEY         MOSUNNY   66  50  55 NW10      30.20F
GLENDIVE       MOSUNNY   68  48  49 NW10      30.22F
MALTA            N/A     68  50  52 N3          N/A
SCOBEY           N/A     63  46  54 CALM      30.19F

FORT PECK REPORTS


CITY           SKY/WX    TMP DP  RH WIND       PRES   REMARKS
FORT PECK        N/A     67  51  56 W7          N/A
THE PINES        N/A     67  45  45 W3          N/A

SOUTHEAST MONTANA


CITY           SKY/WX    TMP DP  RH WIND       PRES   REMARKS
BILLINGS       PTSUNNY   61  49  64 E6        30.28F
MILES CITY     CLOUDY    63  50  62 NW5       30.24S
BAKER          PTSUNNY   64  49  57 NW12G21   30.24R
LIVINGSTON     CLOUDY    58  49  72 E10       30.27F

CENTRAL MONTANA


CITY           SKY/WX    TMP DP  RH WIND       PRES   REMARKS
HAVRE          PTSUNNY   66  46  48 MISG      30.22F
LEWISTOWN      PTSUNNY   62  48  60 SE6       30.26F
GREAT FALLS    MOSUNNY   61  48  62 E7        30.22F
CUT BANK       SUNNY     60  46  59 SE10      30.21F
HELENA         CLOUDY    59  48  67 NE5       30.23F
BUTTE          SUNNY     63  47  55 CALM      30.24F
BOZEMAN        CLOUDY    61  50  67 VRB3      30.25F

WESTERN MONTANA


CITY           SKY/WX    TMP DP  RH WIND       PRES   REMARKS
MISSOULA       SUNNY     67  43  41 CALM      30.17F
KALISPELL      NOT AVBL

NORTH DAKOTA


CITY           SKY/WX    TMP DP  RH WIND       PRES   REMARKS
WILLISTON      PTSUNNY   66  51  58 N10       30.20S HAZE
DICKINSON      PTSUNNY   66  50  56 NW9       30.18S
MINOT          CLOUDY    61  51  70 N7        30.17R HAZE
BISMARCK       CLOUDY    68  52  56 NW12      30.16R HAZE

SOUTHERN SASKATCHEWAN


CITY           SKY/WX    TMP DP  RH WIND       PRES   REMARKS
REGINA         MOSUNNY   64  41  42 NE7       30.21F
MOOSE JAW      MOSUNNY   63  41  45 N3        30.23S
ESTEVAN        PTSUNNY   64  45  48 N13G18    30.20S
SWIFT CURRENT  MOSUNNY   61  46  59 CALM      30.21F




USA.gov is the U.S. government's official web portal to all federal, state and local government web resources and services.